Location: Boiro
(42.6475°N, 8.8834°W)
Time: 23:56:04
(UTC+01:00)

Vanguard 2 Rocket - Pass Details

Date: 09 December 2021
Orbit: 553 x 3325 km, 32.9° (Epoch: 26 January)

Event Time Altitude Azimuth Distance (km) Brightness Sun altitude
Rises 20:17:31 0° 254° (WSW) 3,156 11.1 -24.1°
Reaches altitude 10° 20:19:40 10° 246° (WSW) 2,431 10.1 -24.5°
Maximum altitude 20:24:55 38° 179° (S) 1,657 8.2 -25.5°
Enters shadow 20:28:13 27° 136° (SE) 2,314 8.6 -26.1°
